Stonington, CT (06378)

6:59 AM EDT on April 28, 2017 (GMT -0400)
Masons Island Marina | | Change Station
Active Advisory: Special Statement

Elev 30 ft 41.34 °N, 71.96 °W | Updated 12 seconds ago

Overcast
Overcast
51.4 °F
Feels Like 51.4 °F
N
0.0
Wind Variable Wind from ESE
Gusts 1.0 mph

Today
High -- | Low -- °F
--% Chance of Precip.
Yesterday
High -- | Low -- °F
Precip. -- in
Pressure 29.96 in
Visibility 0.2 miles
Clouds
Dew Point 51 °F
Humidity 99%
Rainfall 0.02 in
Snow Depth Not available.
5:48 AM 7:42 PM
Waxing Crescent, 6% visible
METAR KWST 281053Z AUTO 17003KT 1/4SM FG VV002 12/12 A2996 RMK AO2 LTG DSNT NE RAB02E28 TSB0957E23 SLP143 P0006 T01170117
Pressure 29.96 in
Visibility 0.2 miles
Clouds
Dew Point 51 °F
Humidity 99%
Rainfall 0.02 in
Snow Depth Not available.
5:48 AM 7:42 PM
Waxing Crescent, 6% visible
METAR KWST 281053Z AUTO 17003KT 1/4SM FG VV002 12/12 A2996 RMK AO2 LTG DSNT NE RAB02E28 TSB0957E23 SLP143 P0006 T01170117

Get Your Daily Forecast Email!

Thanks for signing up!

Be on the lookout for a verification email in your inbox.

You'll start receiving severe weather alerts in your inbox..

×

10-Day Weather Forecast

Almanac

Astronomy

Apr. 28, 2017 Rise Set
Actual Time
Civil Twilight
Nautical Twilight
Astronomical Twilight
Moon
Length of Visible Light
Length of Day
Tomorrow will be .
, % of the Moon is Illuminated

Today's Extremes

State Highs State Lows

Community

WunderPhotos

WunderBlog® & News

Nearby

Air Quality

  Air Quality AQ Index Pollutant
Not available.

Snow Depth

Station Depth Elevation

Earthquake Activity

City Distance Mag. Time & Date
Minimum magnitude displayed is 2.5.

Coastal Water Temperatures

Place Temperature

Stations

Nearby Weather Stations

Station Location Temp. Windchill Dew Point Humidity Wind Precip. Elev Updated Type
                   

Watches & Warnings

Special Statement
Issued: 1:48 AM EDT Apr. 28, 2017 – National Weather Service

Areas of fog, locally dense, can be expected through the rest of
tonight. Visibilities will generally be under one mile, and less
than a quarter mile in isolated spots. When traveling, please
exercise caution and be prepared for reduced visibilities.
Visibilities should begin to improve just after sunrise.


148 am EDT Fri Apr 28 2017

Areas of fog, locally dense, can be expected through the rest of
tonight. Visibilities will generally be under one mile, and less
than a quarter mile in isolated spots. When traveling, please
exercise caution and be prepared for reduced visibilities.
Visibilities should begin to improve just after sunrise.